CW1172 Weather Reports


Display with metric or nautical units.
time (UTC)temp
F
wind
direction
speed
MPH
gust
MPH
rain 1hr
in
rain 24hr
in
rain mn
in
humidity
%
barometer
mb
20260902031553 59 196 0.0 0.0 0.00 0.00 0.02 91 1009.0
20260902030051 59 202 0.0 0.0 0.00 0.00 0.02 90 1009.2
20260902024556 59 360 0.0 0.0 0.00 0.00 0.02 90 1009.3
20260902023053 59 201 0.0 0.0 0.00 0.00 0.02 89 1009.3
20260902021553 59 219 0.0 0.0 0.00 0.00 0.00 87 1009.3
20260902020051 59 246 0.0 0.0 0.00 0.00 0.00 85 1009.5
20260902014546 59 209 0.0 0.0 0.00 0.00 0.00 84 1009.7
20260902013045 59 246 0.0 0.0 0.00 0.00 0.00 84 1009.7
20260902011545 59 202 0.0 0.0 0.00 0.00 0.00 84 1009.8
20260902010045 59 250 0.0 0.0 0.00 0.00 0.00 84 1009.8
20260902004543 58 360 0.0 0.0 0.00 0.00 0.00 84 1009.9
20260902003042 58 220 0.0 0.0 0.00 0.00 0.00 84 1009.9
20260902001542 58 247 0.0 0.0 0.00 0.00 0.00 84 1009.9
20260902000042 58 201 0.0 0.0 0.00 0.00 0.00 84 1009.9
20260901234541 58 226 0.0 0.0 0.00 0.00 0.00 84 1010.0
20260901233040 58 197 0.0 0.0 0.00 0.00 0.00 84 1010.0
20260901231540 58 218 0.0 0.0 0.00 0.00 0.00 84 1010.2
20260901230040 58 211 0.0 0.0 0.00 0.00 0.00 83 1010.1
20260901224538 59 190 0.0 0.0 0.00 0.00 0.00 82 1010.0
20260901223042 59 203 0.0 0.0 0.00 0.00 0.00 82 1010.3
20260901221534 59 171 0.0 0.0 0.00 0.00 0.00 82 1010.3
20260901220037 59 228 0.0 0.0 0.00 0.00 0.00 82 1010.3
20260901214535 60 217 0.0 0.0 0.00 0.00 0.00 82 1010.1
20260901213044 60 212 0.0 0.0 0.00 0.00 0.00 82 1010.1
20260901211531 60 188 0.0 0.0 0.00 0.00 0.00 82 1009.9
20260901210033 60 261 0.0 0.0 0.00 0.00 0.00 83 1010.0
20260901204536 60 214 0.0 0.0 0.00 0.00 0.00 84 1009.9
20260901203034 61 215 0.0 0.0 0.00 0.00 0.00 84 1009.8
20260901201531 61 238 0.0 0.0 0.00 0.00 0.00 84 1009.8
20260901200030 61 235 0.0 0.0 0.00 0.00 0.00 84 1009.8
20260901194529 61 196 0.0 0.0 0.00 0.00 0.00 85 1009.8
20260901193030 61 205 0.0 0.0 0.00 0.00 0.00 86 1009.7
20260901191529 61 248 0.0 0.0 0.00 0.00 0.00 86 1009.6
20260901190028 61 200 0.0 0.0 0.00 0.00 0.00 85 1009.7
20260901184539 61 360 0.0 0.0 0.00 0.00 0.00 85 1009.7
20260901183033 61 202 0.0 0.0 0.00 0.00 0.00 84 1009.6
20260901181532 61 240 0.0 0.0 0.00 0.00 0.00 84 1009.7
20260901180026 61 202 0.0 0.0 0.00 0.00 0.00 83 1009.6
20260901174526 61 229 0.0 0.0 0.00 0.00 0.00 82 1009.6
20260901173024 61 214 0.0 0.0 0.00 0.00 0.00 82 1009.5
20260901171524 62 250 0.0 0.0 0.00 0.00 0.00 81 1009.3
20260901170024 62 217 0.0 0.0 0.00 0.00 0.00 81 1009.4
20260901164523 62 360 0.0 0.0 0.00 0.00 0.00 81 1009.3
20260901163022 62 360 0.0 0.0 0.00 0.00 0.00 80 1009.3
20260901161526 62 245 0.0 0.0 0.00 0.00 0.00 79 1009.2
20260901160024 63 234 0.0 0.0 0.00 0.00 0.00 78 1009.2
20260901154521 63 360 0.0 0.0 0.00 0.00 0.00 78 1009.1
20260901153022 64 199 0.0 0.0 0.00 0.00 0.00 77 1009.1
20260901151521 64 225 0.0 0.0 0.00 0.00 0.00 77 1009.0
20260901150021 64 255 0.0 0.0 0.00 0.00 0.00 78 1009.1
20260901144520 65 205 0.0 0.0 0.00 0.00 0.00 76 1009.1
20260901143020 66 232 0.0 0.0 0.00 0.00 0.00 76 1009.0
20260901141532 66 221 0.0 0.0 0.00 0.00 0.00 76 1009.0
20260901140020 66 360 0.0 0.0 0.00 0.00 0.00 75 1009.0
20260901134521 67 207 0.0 0.0 0.00 0.00 0.00 74 1009.0
20260901133020 67 253 0.0 0.0 0.00 0.00 0.00 72 1009.0
20260901131520 68 249 0.0 0.0 0.00 0.00 0.00 72 1009.1
20260901130020 66 206 0.0 0.0 0.00 0.00 0.00 74 1009.0
20260901124518 66 229 0.0 0.0 0.00 0.00 0.00 74 1009.0
20260901123018 67 171 0.0 0.0 0.00 0.00 0.00 75 1009.0
20260901121518 66 225 0.0 0.0 0.00 0.00 0.00 74 1008.9
20260901120019 66 360 0.0 0.0 0.00 0.00 0.00 76 1008.8
20260901114519 67 360 0.0 0.0 0.00 0.00 0.00 72 1008.9
20260901113017 68 233 0.0 0.0 0.00 0.00 0.00 72 1008.8
20260901111517 68 250 0.0 0.0 0.00 0.00 0.00 74 1008.6
20260901110017 68 234 0.0 0.0 0.00 0.00 0.00 74 1008.5
20260901104515 68 257 0.0 0.0 0.00 0.00 0.00 74 1008.5
20260901103014 69 209 0.0 0.0 0.00 0.00 0.00 70 1008.4
20260901101513 69 201 0.0 0.0 0.00 0.00 0.00 71 1008.2
20260901100012 69 181 0.0 0.0 0.00 0.00 0.00 71 1008.1
20260901094509 68 251 0.0 0.0 0.00 0.00 0.00 73 1007.8
20260901093006 67 253 0.0 0.0 0.00 0.00 0.00 72 1007.8
20260901091506 67 220 0.0 0.0 0.00 0.00 0.00 73 1007.8
20260901090007 67 203 0.0 0.0 0.00 0.00 0.00 75 1007.8
20260901084505 65 207 0.0 0.0 0.00 0.00 0.00 77 1007.8
20260901083006 67 60 0.0 0.0 0.00 0.00 0.00 78 1007.7
20260901081503 67 161 0.0 0.0 0.00 0.00 0.00 79 1007.6
20260901080100 65 182 0.0 0.0 0.00 0.00 0.00 83 1007.5
20260901074609 64 223 0.0 0.0 0.00 0.00 0.00 85 1007.6
20260901073059 64 225 0.0 0.0 0.00 0.00 0.00 86 1007.5
20260901071555 64 125 0.0 0.0 0.00 0.00 0.00 89 1007.5
20260901070055 63 125 0.0 0.0 0.00 0.00 0.00 93 1007.4
20260901064551 62 125 0.0 0.0 0.00 0.00 0.00 94 1007.3
20260901063048 60 126 0.0 0.0 0.00 0.00 0.00 95 1007.3
20260901061544 58 126 0.0 0.0 0.00 0.00 0.00 94 1007.3
20260901060043 57 126 0.0 0.0 0.00 0.00 0.00 94 1007.1
20260901054542 57 125 0.0 0.0 0.00 0.00 0.00 94 1007.1
20260901053050 57 125 0.0 0.0 0.00 0.00 0.00 94 1007.1
20260901051541 57 126 0.0 0.0 0.00 0.00 0.00 94 1007.1
20260901050041 56 126 0.0 0.0 0.00 0.00 0.00 94 1007.1
20260901044540 56 125 0.0 0.0 0.00 0.00 0.00 94 1006.9
20260901043039 56 126 0.0 0.0 0.00 0.00 0.00 93 1006.8
20260901041543 56 126 0.0 0.0 0.00 0.00 0.00 93 1006.6
20260901040043 57 125 0.0 0.0 0.00 0.00 0.00 93 1006.5
20260901034536 58 126 0.0 0.0 0.00 0.00 0.00 93 1006.4
20260901033035 58 125 0.0 0.0 0.00 0.00 0.00 93 1006.4